Time,TemperatureF,DewpointF,PressureIn,WindDirection,WindDirectionDegrees,WindSpeedMPH,WindSpeedGustMPH,Humidity,HourlyPrecipIn,Conditions,Clouds,dailyrainin,SolarRadiationWatts/m^2,SoftwareType,DateUTC
2013-03-04 00:00:00,26.3,18.8,30.25,SSW,196,0.0,0.0,73,0.00,,---,0.00,0.00,VWS V14.01,2013-03-04 08:00:00,
2013-03-04 00:05:00,26.3,19.1,30.25,WSW,243,1.0,3.0,74,0.00,,---,0.00,0.00,VWS V14.01,2013-03-04 08:05:00,
2013-03-04 00:10:00,26.3,19.1,30.25,WSW,246,0.0,3.0,74,0.00,,---,0.00,0.00,VWS V14.01,2013-03-04 08:10:00,
2013-03-04 00:15:00,26.2,18.7,30.25,SSW,195,0.0,3.0,73,0.00,,---,0.00,0.00,VWS V14.01,2013-03-04 08:15:00,
2013-03-04 00:20:00,26.2,18.7,30.25,SSE,152,0.0,3.0,73,0.00,,---,0.00,0.00,VWS V14.01,2013-03-04 08:20:00,
2013-03-04 00:25:00,26.2,18.7,30.25,East,96,0.0,3.0,73,0.00,,---,0.00,0.00,VWS V14.01,2013-03-04 08:25:00,
2013-03-04 00:30:00,26.2,18.7,30.25,East,96,0.0,3.0,73,0.00,,---,0.00,0.00,VWS V14.01,2013-03-04 08:30:00,
2013-03-04 00:35:00,26.2,18.7,30.25,East,96,0.0,1.0,73,0.00,,---,0.00,0.00,VWS V14.01,2013-03-04 08:35:00,
2013-03-04 00:40:00,26.1,18.6,30.25,SE,128,3.0,3.0,73,0.00,,---,0.00,0.00,VWS V14.01,2013-03-04 08:40:00,
2013-03-04 00:45:00,26.1,18.3,30.25,SW,230,0.0,3.0,72,0.00,,---,0.00,0.00,VWS V14.01,2013-03-04 08:45:00,
2013-03-04 00:50:00,26.0,18.2,30.25,SSW,192,1.0,3.0,72,0.00,,---,0.00,0.00,VWS V14.01,2013-03-04 08:50:00,
2013-03-04 00:55:00,26.2,18.4,30.25,SW,227,2.0,3.0,72,0.00,,---,0.00,0.00,VWS V14.01,2013-03-04 08:55:00,
2013-03-04 01:00:00,26.1,18.3,30.25,SW,234,0.0,3.0,72,0.00,,---,0.00,0.00,VWS V14.01,2013-03-04 09:00:00,
2013-03-04 01:05:00,26.0,18.2,30.25,SW,234,0.0,0.0,72,0.00,,---,0.00,0.00,VWS V14.01,2013-03-04 09:05:00,
2013-03-04 01:10:00,25.9,18.1,30.25,WSW,246,2.0,3.0,72,0.00,,---,0.00,0.00,VWS V14.01,2013-03-04 09:10:00,
2013-03-04 01:15:00,26.0,18.2,30.26,WSW,247,0.0,3.0,72,0.00,,---,0.00,0.00,VWS V14.01,2013-03-04 09:15:00,
2013-03-04 01:20:00,26.2,18.1,30.26,SW,221,1.0,3.0,71,0.00,,---,0.00,0.00,VWS V14.01,2013-03-04 09:20:00,
2013-03-04 01:25:00,26.7,18.2,30.26,SW,221,1.0,3.0,70,0.00,,---,0.00,0.00,VWS V14.01,2013-03-04 09:25:00,
2013-03-04 01:30:00,27.2,18.0,30.26,SW,215,1.0,3.0,68,0.00,,---,0.00,0.00,VWS V14.01,2013-03-04 09:30:00,
2013-03-04 01:35:00,27.1,18.0,30.26,SW,218,2.0,3.0,68,0.00,,---,0.00,0.00,VWS V14.01,2013-03-04 09:35:00,
2013-03-04 01:40:00,27.1,18.0,30.26,SSW,211,1.0,3.0,68,0.00,,---,0.00,0.00,VWS V14.01,2013-03-04 09:40:00,
2013-03-04 01:45:00,26.8,18.0,30.26,WSW,252,1.0,3.0,69,0.00,,---,0.00,0.00,VWS V14.01,2013-03-04 09:45:00,
2013-03-04 01:50:00,26.6,18.1,30.26,WSW,244,0.0,3.0,70,0.00,,---,0.00,0.00,VWS V14.01,2013-03-04 09:50:00,
2013-03-04 01:55:00,26.4,18.0,30.26,WSW,244,0.0,3.0,70,0.00,,---,0.00,0.00,VWS V14.01,2013-03-04 09:55:00,
2013-03-04 02:00:00,26.2,18.1,30.26,WSW,244,1.0,3.0,71,0.00,,---,0.00,0.00,VWS V14.01,2013-03-04 10:00:00,
2013-03-04 02:05:00,25.9,18.1,30.26,WSW,244,1.0,2.0,72,0.00,,---,0.00,0.00,VWS V14.01,2013-03-04 10:05:00,
2013-03-04 02:10:00,25.8,18.0,30.26,WSW,244,0.0,2.0,72,0.00,,---,0.00,0.00,VWS V14.01,2013-03-04 10:10:00,
2013-03-04 02:15:00,25.6,18.2,30.25,WSW,244,2.0,2.0,73,0.00,,---,0.00,0.00,VWS V14.01,2013-03-04 10:15:00,
2013-03-04 02:20:00,25.6,18.2,30.26,WSW,244,0.0,2.0,73,0.00,,---,0.00,0.00,VWS V14.01,2013-03-04 10:20:00,
2013-03-04 02:25:00,25.4,18.0,30.25,WSW,244,0.0,2.0,73,0.00,,---,0.00,0.00,VWS V14.01,2013-03-04 10:25:00,
2013-03-04 02:30:00,25.2,18.1,30.25,WSW,244,0.0,2.0,74,0.00,,---,0.00,0.00,VWS V14.01,2013-03-04 10:30:00,
2013-03-04 02:35:00,25.0,17.9,30.25,WSW,244,0.0,0.0,74,0.00,,---,0.00,0.00,VWS V14.01,2013-03-04 10:35:00,
2013-03-04 02:40:00,24.7,17.9,30.25,WSW,244,0.0,0.0,75,0.00,,---,0.00,0.00,VWS V14.01,2013-03-04 10:40:00,
2013-03-04 02:45:00,24.5,18.0,30.25,WSW,244,0.0,0.0,76,0.00,,---,0.00,0.00,VWS V14.01,2013-03-04 10:45:00,
2013-03-04 02:50:00,24.4,17.9,30.25,WSW,244,0.0,0.0,76,0.00,,---,0.00,0.00,VWS V14.01,2013-03-04 10:50:00,
2013-03-04 02:55:00,24.3,17.8,30.25,WSW,244,0.0,0.0,76,0.00,,---,0.00,0.00,VWS V14.01,2013-03-04 10:55:00,
2013-03-04 03:00:00,24.1,18.0,30.25,WSW,244,0.0,2.0,77,0.00,,---,0.00,0.00,VWS V14.01,2013-03-04 11:00:00,
2013-03-04 03:05:00,24.0,17.9,30.25,WSW,244,0.0,0.0,77,0.00,,---,0.00,0.00,VWS V14.01,2013-03-04 11:05:00,
2013-03-04 03:10:00,23.9,17.8,30.25,WSW,244,0.0,0.0,77,0.00,,---,0.00,0.00,VWS V14.01,2013-03-04 11:10:00,
2013-03-04 03:15:00,23.8,17.7,30.25,WSW,244,0.0,0.0,77,0.00,,---,0.00,0.00,VWS V14.01,2013-03-04 11:15:00,
2013-03-04 03:20:00,23.7,17.6,30.25,WSW,244,0.0,0.0,77,0.00,,---,0.00,0.00,VWS V14.01,2013-03-04 11:20:00,
2013-03-04 03:25:00,23.7,17.9,30.25,WSW,246,2.0,2.0,78,0.00,,---,0.00,0.00,VWS V14.01,2013-03-04 11:25:00,
2013-03-04 03:30:00,23.6,17.8,30.25,WSW,247,1.0,2.0,78,0.00,,---,0.00,0.00,VWS V14.01,2013-03-04 11:30:00,
2013-03-04 03:35:00,23.6,17.8,30.25,WSW,247,1.0,2.0,78,0.00,,---,0.00,0.00,VWS V14.01,2013-03-04 11:35:00,
2013-03-04 03:40:00,23.5,18.0,30.25,WSW,247,1.0,2.0,79,0.00,,---,0.00,0.00,VWS V14.01,2013-03-04 11:40:00,
2013-03-04 03:45:00,23.5,18.0,30.25,WSW,247,1.0,2.0,79,0.00,,---,0.00,0.00,VWS V14.01,2013-03-04 11:45:00,
2013-03-04 03:50:00,23.4,17.9,30.25,WSW,247,0.0,2.0,79,0.00,,---,0.00,0.00,VWS V14.01,2013-03-04 11:50:00,
2013-03-04 03:55:00,23.3,18.1,30.25,WSW,247,0.0,2.0,80,0.00,,---,0.00,0.00,VWS V14.01,2013-03-04 11:55:00,
2013-03-04 04:00:00,23.2,18.0,30.25,WSW,247,1.0,2.0,80,0.00,,---,0.00,0.00,VWS V14.01,2013-03-04 12:00:00,
2013-03-04 04:05:00,23.1,18.1,30.25,West,265,2.0,3.0,81,0.00,,---,0.00,0.00,VWS V14.01,2013-03-04 12:05:00,
2013-03-04 04:10:00,23.1,18.1,30.25,WSW,250,2.0,3.0,81,0.00,,---,0.00,0.00,VWS V14.01,2013-03-04 12:10:00,
2013-03-04 04:15:00,23.1,18.1,30.25,West,265,1.0,3.0,81,0.00,,---,0.00,0.00,VWS V14.01,2013-03-04 12:15:00,
2013-03-04 04:20:00,23.1,18.1,30.25,West,265,1.0,3.0,81,0.00,,---,0.00,0.00,VWS V14.01,2013-03-04 12:20:00,
2013-03-04 04:25:00,23.1,18.1,30.25,West,265,0.0,3.0,81,0.00,,---,0.00,0.00,VWS V14.01,2013-03-04 12:25:00,
2013-03-04 04:30:00,23.0,18.0,30.25,West,265,0.0,3.0,81,0.00,,---,0.00,0.00,VWS V14.01,2013-03-04 12:30:00,
2013-03-04 04:35:00,22.9,18.0,30.25,West,265,0.0,0.0,81,0.00,,---,0.00,0.00,VWS V14.01,2013-03-04 12:35:00,
2013-03-04 04:40:00,22.8,17.9,30.25,West,265,0.0,0.0,81,0.00,,---,0.00,0.00,VWS V14.01,2013-03-04 12:40:00,
2013-03-04 04:45:00,22.7,17.8,30.25,West,265,0.0,2.0,81,0.00,,---,0.00,0.00,VWS V14.01,2013-03-04 12:45:00,
2013-03-04 04:50:00,22.7,17.8,30.25,West,265,0.0,2.0,81,0.00,,---,0.00,0.00,VWS V14.01,2013-03-04 12:50:00,
2013-03-04 04:55:00,22.7,17.8,30.25,West,265,0.0,2.0,81,0.00,,---,0.00,0.00,VWS V14.01,2013-03-04 12:55:00,
2013-03-04 05:00:00,22.6,17.7,30.25,West,271,1.0,2.0,81,0.00,,---,0.00,0.00,VWS V14.01,2013-03-04 13:00:00,
2013-03-04 05:05:00,22.7,18.0,30.25,West,271,1.0,2.0,82,0.00,,---,0.00,0.00,VWS V14.01,2013-03-04 13:05:00,
2013-03-04 05:10:00,22.7,17.8,30.25,West,271,1.0,2.0,81,0.00,,---,0.00,0.00,VWS V14.01,2013-03-04 13:10:00,
2013-03-04 05:15:00,22.6,17.9,30.25,West,271,1.0,2.0,82,0.00,,---,0.00,0.00,VWS V14.01,2013-03-04 13:15:00,
2013-03-04 05:20:00,22.6,17.9,30.25,West,271,1.0,2.0,82,0.00,,---,0.00,0.00,VWS V14.01,2013-03-04 13:20:00,
2013-03-04 05:25:00,22.6,17.9,30.25,West,271,1.0,2.0,82,0.00,,---,0.00,0.00,VWS V14.01,2013-03-04 13:25:00,
2013-03-04 05:30:00,22.6,17.9,30.25,West,271,1.0,2.0,82,0.00,,---,0.00,0.00,VWS V14.01,2013-03-04 13:30:00,
2013-03-04 05:35:00,22.6,17.9,30.25,West,271,1.0,1.0,82,0.00,,---,0.00,0.00,VWS V14.01,2013-03-04 13:35:00,
2013-03-04 05:40:00,22.6,17.9,30.25,West,271,2.0,2.0,82,0.00,,---,0.00,0.00,VWS V14.01,2013-03-04 13:40:00,
2013-03-04 05:45:00,22.7,18.0,30.25,WNW,283,3.0,3.0,82,0.00,,---,0.00,0.00,VWS V14.01,2013-03-04 13:45:00,
2013-03-04 05:50:00,22.7,18.0,30.25,WNW,282,2.0,3.0,82,0.00,,---,0.00,0.00,VWS V14.01,2013-03-04 13:50:00,
2013-03-04 05:55:00,22.7,18.0,30.25,WNW,282,1.0,3.0,82,0.00,,---,0.00,0.00,VWS V14.01,2013-03-04 13:55:00,
2013-03-04 06:00:00,22.7,18.0,30.25,WNW,282,0.0,3.0,82,0.00,,---,0.00,0.00,VWS V14.01,2013-03-04 14:00:00,
2013-03-04 06:05:00,22.5,17.9,30.26,WNW,282,1.0,2.0,82,0.00,,---,0.00,0.00,VWS V14.01,2013-03-04 14:05:00,
2013-03-04 06:10:00,22.7,18.0,30.26,West,262,0.0,2.0,82,0.00,,---,0.00,0.00,VWS V14.01,2013-03-04 14:10:00,
2013-03-04 06:15:00,22.7,18.0,30.26,West,263,0.0,2.0,82,0.00,,---,0.00,0.00,VWS V14.01,2013-03-04 14:15:00,
2013-03-04 06:20:00,22.7,18.0,30.26,WSW,250,1.0,2.0,82,0.00,,---,0.00,0.00,VWS V14.01,2013-03-04 14:20:00,
2013-03-04 06:25:00,22.7,17.8,30.26,SW,233,1.0,3.0,81,0.00,,---,0.00,0.00,VWS V14.01,2013-03-04 14:25:00,
2013-03-04 06:30:00,22.9,18.0,30.26,WSW,244,2.0,5.0,81,0.00,,---,0.00,0.00,VWS V14.01,2013-03-04 14:30:00,
2013-03-04 06:35:00,23.3,18.1,30.26,WSW,253,0.0,5.0,80,0.00,,---,0.00,0.00,VWS V14.01,2013-03-04 14:35:00,
2013-03-04 06:39:00,23.5,17.7,30.25,WSW,239,2.0,5.0,78,0.00,,---,0.00,5.00,VWS V14.01,2013-03-04 14:39:00,
2013-03-04 06:44:00,23.8,18.0,30.25,SW,233,0.0,5.0,78,0.00,,---,0.00,11.00,VWS V14.01,2013-03-04 14:44:00,
2013-03-04 06:49:00,23.8,18.0,30.25,WSW,243,0.0,5.0,78,0.00,,---,0.00,16.00,VWS V14.01,2013-03-04 14:49:00,
2013-03-04 06:54:00,23.6,17.8,30.25,NW,308,0.0,5.0,78,0.00,,---,0.00,21.00,VWS V14.01,2013-03-04 14:54:00,
2013-03-04 06:59:00,23.4,17.6,30.25,NW,308,0.0,5.0,78,0.00,,---,0.00,25.00,VWS V14.01,2013-03-04 14:59:00,
2013-03-04 07:04:00,23.2,17.7,30.25,NW,308,0.0,0.0,79,0.00,,---,0.00,26.00,VWS V14.01,2013-03-04 15:04:00,
2013-03-04 07:09:00,23.1,17.6,30.25,NNW,344,0.0,2.0,79,0.00,,---,0.00,30.00,VWS V14.01,2013-03-04 15:09:00,
2013-03-04 07:14:00,23.1,17.6,30.25,NW,313,0.0,2.0,79,0.00,,---,0.00,32.00,VWS V14.01,2013-03-04 15:14:00,
2013-03-04 07:19:00,23.3,17.2,30.25,NW,315,1.0,5.0,77,0.00,,---,0.00,33.00,VWS V14.01,2013-03-04 15:19:00,
2013-03-04 07:24:00,23.4,17.0,30.25,NNE,24,1.0,5.0,76,0.00,,---,0.00,35.00,VWS V14.01,2013-03-04 15:24:00,
2013-03-04 07:29:00,23.7,17.0,30.24,NNW,348,0.0,5.0,75,0.00,,---,0.00,39.00,VWS V14.01,2013-03-04 15:29:00,
2013-03-04 07:34:00,24.0,16.9,30.24,WSW,237,6.0,6.0,74,0.00,,---,0.00,40.00,VWS V14.01,2013-03-04 15:34:00,
2013-03-04 07:39:00,24.3,16.9,30.25,NE,49,0.0,6.0,73,0.00,,---,0.00,40.00,VWS V14.01,2013-03-04 15:39:00,
2013-03-04 07:44:00,24.3,16.9,30.25,NE,49,0.0,6.0,73,0.00,,---,0.00,42.00,VWS V14.01,2013-03-04 15:44:00,
2013-03-04 07:49:00,24.2,17.1,30.25,NE,49,0.0,6.0,74,0.00,,---,0.00,42.00,VWS V14.01,2013-03-04 15:49:00,
2013-03-04 07:54:00,24.1,17.0,30.25,NE,49,0.0,6.0,74,0.00,,---,0.00,46.00,VWS V14.01,2013-03-04 15:54:00,
2013-03-04 07:59:00,24.1,17.0,30.25,North,11,2.0,6.0,74,0.00,,---,0.00,141.00,VWS V14.01,2013-03-04 15:59:00,
2013-03-04 08:04:00,24.1,17.0,30.25,North,5,0.0,2.0,74,0.00,,---,0.00,98.00,VWS V14.01,2013-03-04 16:04:00,
2013-03-04 08:09:00,24.3,17.5,30.25,NW,318,1.0,3.0,75,0.00,,---,0.00,162.00,VWS V14.01,2013-03-04 16:09:00,
2013-03-04 08:14:00,24.5,17.7,30.25,NNW,343,1.0,3.0,75,0.00,,---,0.00,90.00,VWS V14.01,2013-03-04 16:14:00,
2013-03-04 08:19:00,24.8,17.7,30.25,NW,318,1.0,4.0,74,0.00,,---,0.00,123.00,VWS V14.01,2013-03-04 16:19:00,
2013-03-04 08:24:00,25.2,18.1,30.25,NNE,30,2.0,4.0,74,0.00,,---,0.00,67.00,VWS V14.01,2013-03-04 16:24:00,
2013-03-04 08:29:00,25.5,18.1,30.25,NNE,26,2.0,4.0,73,0.00,,---,0.00,69.00,VWS V14.01,2013-03-04 16:29:00,
2013-03-04 08:34:00,26.0,18.2,30.25,North,5,1.0,4.0,72,0.00,,---,0.00,63.00,VWS V14.01,2013-03-04 16:34:00,
2013-03-04 08:39:00,26.4,18.6,30.24,NNE,32,3.0,4.0,72,0.00,,---,0.00,114.00,VWS V14.01,2013-03-04 16:39:00,
2013-03-04 08:44:00,26.8,18.7,30.24,NE,40,1.0,4.0,71,0.00,,---,0.00,84.00,VWS V14.01,2013-03-04 16:44:00,
2013-03-04 08:49:00,27.1,18.6,30.24,NNE,33,0.0,4.0,70,0.00,,---,0.00,332.00,VWS V14.01,2013-03-04 16:49:00,
2013-03-04 08:54:00,27.4,18.9,30.24,NNE,33,0.0,4.0,70,0.00,,---,0.00,253.00,VWS V14.01,2013-03-04 16:54:00,
2013-03-04 08:59:00,27.9,19.1,30.24,NE,37,3.0,4.0,69,0.00,,---,0.00,65.00,VWS V14.01,2013-03-04 16:59:00,
2013-03-04 09:04:00,28.6,19.0,30.24,NW,318,1.0,4.0,67,0.00,,---,0.00,69.00,VWS V14.01,2013-03-04 17:04:00,
2013-03-04 09:09:00,29.1,19.2,30.24,NE,40,0.0,5.0,66,0.00,,---,0.00,100.00,VWS V14.01,2013-03-04 17:09:00,
2013-03-04 09:14:00,29.7,19.4,30.24,ESE,107,2.0,5.0,65,0.00,,---,0.00,104.00,VWS V14.01,2013-03-04 17:14:00,
2013-03-04 09:19:00,30.3,20.0,30.24,NNE,32,0.0,5.0,65,0.00,,---,0.00,125.00,VWS V14.01,2013-03-04 17:19:00,
2013-03-04 09:24:00,31.0,19.1,30.23,NNW,341,2.0,7.0,61,0.00,,---,0.00,123.00,VWS V14.01,2013-03-04 17:24:00,
2013-03-04 09:29:00,31.9,19.2,30.23,NNE,19,1.0,7.0,59,0.00,,---,0.00,120.00,VWS V14.01,2013-03-04 17:29:00,
2013-03-04 09:34:00,32.6,19.1,30.23,NE,43,2.0,4.0,57,0.00,,---,0.00,123.00,VWS V14.01,2013-03-04 17:34:00,
2013-03-04 09:39:00,33.0,19.0,30.23,NNE,28,3.0,5.0,56,0.00,,---,0.00,125.00,VWS V14.01,2013-03-04 17:39:00,
2013-03-04 09:44:00,33.3,18.9,30.23,NE,52,2.0,5.0,55,0.00,,---,0.00,123.00,VWS V14.01,2013-03-04 17:44:00,
2013-03-04 09:49:00,33.5,19.5,30.23,NNE,13,1.0,5.0,56,0.00,,---,0.00,146.00,VWS V14.01,2013-03-04 17:49:00,
2013-03-04 09:54:00,33.9,19.9,30.22,ENE,63,1.0,5.0,56,0.00,,---,0.00,102.00,VWS V14.01,2013-03-04 17:54:00,
2013-03-04 09:59:00,34.3,19.0,30.22,ENE,65,0.0,5.0,53,0.00,,---,0.00,76.00,VWS V14.01,2013-03-04 17:59:00,
2013-03-04 10:04:00,34.8,19.0,30.22,ENE,74,1.0,5.0,52,0.00,,---,0.00,67.00,VWS V14.01,2013-03-04 18:04:00,
2013-03-04 10:09:00,35.4,19.1,30.23,NNE,32,2.0,6.0,51,0.00,,---,0.00,76.00,VWS V14.01,2013-03-04 18:09:00,
2013-03-04 10:14:00,36.0,19.2,30.22,NNE,12,7.0,11.0,50,0.00,,---,0.00,98.00,VWS V14.01,2013-03-04 18:14:00,
2013-03-04 10:19:00,36.5,18.7,30.22,NE,46,4.0,11.0,48,0.00,,---,0.00,232.00,VWS V14.01,2013-03-04 18:19:00,
2013-03-04 10:24:00,36.9,19.1,30.22,East,79,3.0,11.0,48,0.00,,---,0.00,563.00,VWS V14.01,2013-03-04 18:24:00,
2013-03-04 10:29:00,37.4,18.5,30.22,NNE,30,4.0,11.0,46,0.00,,---,0.00,577.00,VWS V14.01,2013-03-04 18:29:00,
2013-03-04 10:30:00,37.5,18.6,30.22,NNE,19,6.0,11.0,46,0.00,,---,0.00,577.00,VWS V14.01,2013-03-04 18:30:00,
2013-03-04 10:35:00,37.9,19.5,30.22,ENE,57,3.0,6.0,47,0.00,,---,0.00,592.00,VWS V14.01,2013-03-04 18:35:00,
2013-03-04 10:40:00,38.5,19.0,30.22,NNE,19,2.0,6.0,45,0.00,,---,0.00,596.00,VWS V14.01,2013-03-04 18:40:00,
2013-03-04 10:45:00,39.2,19.1,30.21,ENE,66,5.0,6.0,44,0.00,,---,0.00,584.00,VWS V14.01,2013-03-04 18:45:00,
2013-03-04 10:50:00,39.7,19.0,30.21,East,84,3.0,6.0,43,0.00,,---,0.00,621.00,VWS V14.01,2013-03-04 18:50:00,
2013-03-04 10:55:00,40.1,18.9,30.20,ENE,62,3.0,8.0,42,0.00,,---,0.00,613.00,VWS V14.01,2013-03-04 18:55:00,
2013-03-04 10:59:00,40.5,18.7,30.20,North,5,0.0,9.0,41,0.00,,---,0.00,580.00,VWS V14.01,2013-03-04 18:59:00,
2013-03-04 11:04:00,40.8,18.4,30.20,NE,52,7.0,9.0,40,0.00,,---,0.00,617.00,VWS V14.01,2013-03-04 19:04:00,
2013-03-04 11:09:00,41.0,18.0,30.20,NNE,16,3.0,9.0,39,0.00,,---,0.00,471.00,VWS V14.01,2013-03-04 19:09:00,
2013-03-04 11:14:00,41.3,18.2,30.20,NW,325,2.0,9.0,39,0.00,,---,0.00,668.00,VWS V14.01,2013-03-04 19:14:00,
2013-03-04 11:19:00,41.8,18.7,30.19,ENE,64,8.0,9.0,39,0.00,,---,0.00,589.00,VWS V14.01,2013-03-04 19:19:00,
2013-03-04 11:24:00,42.2,17.8,30.19,NE,51,4.0,9.0,37,0.00,,---,0.00,608.00,VWS V14.01,2013-03-04 19:24:00,
2013-03-04 11:29:00,42.3,17.9,30.19,NNE,32,3.0,9.0,37,0.00,,---,0.00,647.00,VWS V14.01,2013-03-04 19:29:00,
2013-03-04 11:34:00,42.4,18.0,30.19,NE,53,2.0,10.0,37,0.00,,---,0.00,635.00,VWS V14.01,2013-03-04 19:34:00,
2013-03-04 11:39:00,42.8,18.4,30.19,ENE,63,3.0,10.0,37,0.00,,---,0.00,647.00,VWS V14.01,2013-03-04 19:39:00,
2013-03-04 11:44:00,43.4,18.2,30.19,NE,47,4.0,10.0,36,0.00,,---,0.00,656.00,VWS V14.01,2013-03-04 19:44:00,
2013-03-04 11:49:00,43.6,17.8,30.19,North,5,2.0,10.0,35,0.00,,---,0.00,636.00,VWS V14.01,2013-03-04 19:49:00,
2013-03-04 11:54:00,44.0,18.8,30.18,NE,36,2.0,10.0,36,0.00,,---,0.00,691.00,VWS V14.01,2013-03-04 19:54:00,
2013-03-04 11:59:00,44.3,19.0,30.18,ENE,63,4.0,10.0,36,0.00,,---,0.00,721.00,VWS V14.01,2013-03-04 19:59:00,
2013-03-04 12:04:00,45.0,19.0,30.18,NNE,15,8.0,8.0,35,0.00,,---,0.00,650.00,VWS V14.01,2013-03-04 20:04:00,
2013-03-04 12:09:00,45.3,19.3,30.18,NE,44,6.0,10.0,35,0.00,,---,0.00,545.00,VWS V14.01,2013-03-04 20:09:00,
2013-03-04 12:14:00,45.5,19.5,30.18,NE,53,3.0,10.0,35,0.00,,---,0.00,675.00,VWS V14.01,2013-03-04 20:14:00,
2013-03-04 12:19:00,46.0,19.9,30.17,West,275,3.0,10.0,35,0.00,,---,0.00,577.00,VWS V14.01,2013-03-04 20:19:00,
2013-03-04 12:24:00,46.3,19.5,30.17,ENE,57,3.0,11.0,34,0.00,,---,0.00,536.00,VWS V14.01,2013-03-04 20:24:00,
2013-03-04 12:29:00,46.4,19.6,30.17,NNE,22,2.0,11.0,34,0.00,,---,0.00,339.00,VWS V14.01,2013-03-04 20:29:00,
2013-03-04 12:34:00,46.4,19.6,30.17,NNE,13,6.0,9.0,34,0.00,,---,0.00,541.00,VWS V14.01,2013-03-04 20:34:00,
2013-03-04 12:39:00,46.7,19.8,30.16,WNW,298,3.0,10.0,34,0.00,,---,0.00,708.00,VWS V14.01,2013-03-04 20:39:00,
2013-03-04 12:44:00,47.2,18.9,30.16,NE,46,1.0,10.0,32,0.00,,---,0.00,722.00,VWS V14.01,2013-03-04 20:44:00,
2013-03-04 12:49:00,47.6,19.2,30.15,NE,35,3.0,10.0,32,0.00,,---,0.00,624.00,VWS V14.01,2013-03-04 20:49:00,
2013-03-04 12:54:00,47.8,19.4,30.15,NE,46,3.0,11.0,32,0.00,,---,0.00,401.00,VWS V14.01,2013-03-04 20:54:00,
2013-03-04 12:59:00,47.8,19.4,30.14,ENE,57,4.0,11.0,32,0.00,,---,0.00,696.00,VWS V14.01,2013-03-04 20:59:00,
2013-03-04 13:04:00,48.2,19.7,30.14,East,80,3.0,6.0,32,0.00,,---,0.00,759.00,VWS V14.01,2013-03-04 21:04:00,
2013-03-04 13:09:00,48.5,20.0,30.14,ENE,60,4.0,7.0,32,0.00,,---,0.00,719.00,VWS V14.01,2013-03-04 21:09:00,
2013-03-04 13:14:00,48.9,20.4,30.14,WSW,252,5.0,9.0,32,0.00,,---,0.00,633.00,VWS V14.01,2013-03-04 21:14:00,
2013-03-04 13:19:00,48.7,19.4,30.14,WSW,242,5.0,9.0,31,0.00,,---,0.00,649.00,VWS V14.01,2013-03-04 21:19:00,
2013-03-04 13:24:00,48.4,19.2,30.13,SSW,212,2.0,9.0,31,0.00,,---,0.00,701.00,VWS V14.01,2013-03-04 21:24:00,
2013-03-04 13:29:00,48.7,19.4,30.13,SW,228,1.0,9.0,31,0.00,,---,0.00,654.00,VWS V14.01,2013-03-04 21:29:00,
2013-03-04 13:34:00,49.2,20.6,30.13,SW,225,2.0,3.0,32,0.00,,---,0.00,671.00,VWS V14.01,2013-03-04 21:34:00,
2013-03-04 13:39:00,49.4,19.3,30.13,SSE,157,1.0,5.0,30,0.00,,---,0.00,610.00,VWS V14.01,2013-03-04 21:39:00,
2013-03-04 13:44:00,49.6,21.0,30.13,South,191,1.0,5.0,32,0.00,,---,0.00,512.00,VWS V14.01,2013-03-04 21:44:00,
2013-03-04 13:49:00,49.9,20.5,30.12,ENE,78,2.0,6.0,31,0.00,,---,0.00,547.00,VWS V14.01,2013-03-04 21:49:00,
2013-03-04 13:54:00,49.9,19.7,30.12,SW,232,2.0,6.0,30,0.00,,---,0.00,515.00,VWS V14.01,2013-03-04 21:54:00,
2013-03-04 13:59:00,49.9,20.5,30.12,NW,315,2.0,6.0,31,0.00,,---,0.00,592.00,VWS V14.01,2013-03-04 21:59:00,
2013-03-04 14:04:00,49.9,18.9,30.12,NW,319,0.0,7.0,29,0.00,,---,0.00,545.00,VWS V14.01,2013-03-04 22:04:00,
2013-03-04 14:09:00,49.8,20.4,30.12,SSE,167,0.0,7.0,31,0.00,,---,0.00,503.00,VWS V14.01,2013-03-04 22:09:00,
2013-03-04 14:14:00,50.0,19.0,30.11,SSW,210,3.0,7.0,29,0.00,,---,0.00,520.00,VWS V14.01,2013-03-04 22:14:00,
2013-03-04 14:19:00,49.8,18.8,30.11,WSW,240,8.0,8.0,29,0.00,,---,0.00,566.00,VWS V14.01,2013-03-04 22:19:00,
2013-03-04 14:24:00,49.7,19.5,30.11,WSW,241,0.0,8.0,30,0.00,,---,0.00,501.00,VWS V14.01,2013-03-04 22:24:00,
2013-03-04 14:29:00,49.9,19.7,30.11,SW,225,0.0,8.0,30,0.00,,---,0.00,496.00,VWS V14.01,2013-03-04 22:29:00,
2013-03-04 14:34:00,50.0,19.0,30.11,SSE,153,2.0,8.0,29,0.00,,---,0.00,364.00,VWS V14.01,2013-03-04 22:34:00,
2013-03-04 14:39:00,50.1,19.1,30.11,WSW,254,4.0,8.0,29,0.00,,---,0.00,394.00,VWS V14.01,2013-03-04 22:39:00,
2013-03-04 14:44:00,50.2,19.2,30.11,North,5,1.0,8.0,29,0.00,,---,0.00,299.00,VWS V14.01,2013-03-04 22:44:00,
2013-03-04 14:49:00,50.4,19.4,30.11,WSW,237,0.0,8.0,29,0.00,,---,0.00,308.00,VWS V14.01,2013-03-04 22:49:00,
2013-03-04 14:54:00,50.7,20.4,30.11,NE,36,2.0,8.0,30,0.00,,---,0.00,380.00,VWS V14.01,2013-03-04 22:54:00,
2013-03-04 14:59:00,51.2,20.9,30.10,ENE,66,3.0,8.0,30,0.00,,---,0.00,512.00,VWS V14.01,2013-03-04 22:59:00,
2013-03-04 15:04:00,51.8,18.9,30.10,WNW,292,4.0,5.0,27,0.00,,---,0.00,508.00,VWS V14.01,2013-03-04 23:04:00,
2013-03-04 15:09:00,51.3,19.3,30.10,SW,230,1.0,7.0,28,0.00,,---,0.00,454.00,VWS V14.01,2013-03-04 23:09:00,
2013-03-04 15:14:00,51.1,20.0,30.10,WSW,257,1.0,7.0,29,0.00,,---,0.00,376.00,VWS V14.01,2013-03-04 23:14:00,
2013-03-04 15:19:00,51.1,20.0,30.10,SW,230,0.0,7.0,29,0.00,,---,0.00,374.00,VWS V14.01,2013-03-04 23:19:00,
2013-03-04 15:24:00,51.2,20.0,30.09,SSW,213,2.0,7.0,29,0.00,,---,0.00,443.00,VWS V14.01,2013-03-04 23:24:00,
2013-03-04 15:29:00,51.3,19.3,30.10,South,180,0.0,7.0,28,0.00,,---,0.00,301.00,VWS V14.01,2013-03-04 23:29:00,
2013-03-04 15:34:00,51.3,20.1,30.09,SSE,157,2.0,3.0,29,0.00,,---,0.00,236.00,VWS V14.01,2013-03-04 23:34:00,
2013-03-04 15:39:00,51.4,18.6,30.09,WSW,238,0.0,3.0,27,0.00,,---,0.00,436.00,VWS V14.01,2013-03-04 23:39:00,
2013-03-04 15:44:00,51.6,20.4,30.09,South,179,1.0,3.0,29,0.00,,---,0.00,410.00,VWS V14.01,2013-03-04 23:44:00,
2013-03-04 15:49:00,52.2,20.9,30.09,WSW,242,1.0,4.0,29,0.00,,---,0.00,357.00,VWS V14.01,2013-03-04 23:49:00,
2013-03-04 15:54:00,52.2,20.1,30.08,West,264,0.0,5.0,28,0.00,,---,0.00,330.00,VWS V14.01,2013-03-04 23:54:00,
2013-03-04 15:59:00,51.9,19.8,30.08,SSW,194,0.0,5.0,28,0.00,,---,0.00,315.00,VWS V14.01,2013-03-04 23:59:00,
2013-03-04 16:04:00,51.7,20.5,30.07,SW,229,3.0,6.0,29,0.00,,---,0.00,302.00,VWS V14.01,2013-03-05 00:04:00,
2013-03-04 16:09:00,50.6,20.3,30.07,SW,234,2.0,7.0,30,0.00,,---,0.00,285.00,VWS V14.01,2013-03-05 00:09:00,
2013-03-04 16:14:00,49.9,20.5,30.07,South,190,3.0,7.0,31,0.00,,---,0.00,269.00,VWS V14.01,2013-03-05 00:14:00,
2013-03-04 16:19:00,49.9,21.2,30.06,SSE,167,2.0,7.0,32,0.00,,---,0.00,253.00,VWS V14.01,2013-03-05 00:19:00,
2013-03-04 16:24:00,49.9,21.2,30.07,SSE,167,2.0,8.0,32,0.00,,---,0.00,234.00,VWS V14.01,2013-03-05 00:24:00,
2013-03-04 16:29:00,50.0,21.3,30.07,SE,146,6.0,8.0,32,0.00,,---,0.00,218.00,VWS V14.01,2013-03-05 00:29:00,
2013-03-04 16:34:00,49.8,21.1,30.08,SSE,161,2.0,9.0,32,0.00,,---,0.00,202.00,VWS V14.01,2013-03-05 00:34:00,
2013-03-04 16:39:00,49.8,21.1,30.08,SSE,149,6.0,9.0,32,0.00,,---,0.00,185.00,VWS V14.01,2013-03-05 00:39:00,
2013-03-04 16:44:00,49.7,21.1,30.08,South,184,4.0,9.0,32,0.00,,---,0.00,165.00,VWS V14.01,2013-03-05 00:44:00,
2013-03-04 16:49:00,49.4,21.5,30.08,South,178,5.0,9.0,33,0.00,,---,0.00,148.00,VWS V14.01,2013-03-05 00:49:00,
2013-03-04 16:54:00,48.9,21.8,30.08,SSE,153,4.0,9.0,34,0.00,,---,0.00,130.00,VWS V14.01,2013-03-05 00:54:00,
2013-03-04 16:59:00,48.7,21.6,30.07,SSE,154,2.0,9.0,34,0.00,,---,0.00,113.00,VWS V14.01,2013-03-05 00:59:00,
2013-03-04 17:04:00,48.5,21.4,30.07,South,180,3.0,5.0,34,0.00,,---,0.00,97.00,VWS V14.01,2013-03-05 01:04:00,
2013-03-04 17:09:00,48.3,21.2,30.07,South,178,3.0,5.0,34,0.00,,---,0.00,81.00,VWS V14.01,2013-03-05 01:09:00,
2013-03-04 17:14:00,48.1,21.8,30.07,SSW,197,2.0,7.0,35,0.00,,---,0.00,69.00,VWS V14.01,2013-03-05 01:14:00,
2013-03-04 17:19:00,47.8,21.5,30.07,SSW,212,3.0,7.0,35,0.00,,---,0.00,56.00,VWS V14.01,2013-03-05 01:19:00,
2013-03-04 17:24:00,47.4,21.1,30.08,SSE,163,1.0,7.0,35,0.00,,---,0.00,40.00,VWS V14.01,2013-03-05 01:24:00,
2013-03-04 17:29:00,46.9,21.4,30.07,South,190,3.0,7.0,36,0.00,,---,0.00,30.00,VWS V14.01,2013-03-05 01:29:00,
2013-03-04 17:34:00,46.5,21.6,30.08,SSW,193,2.0,3.0,37,0.00,,---,0.00,23.00,VWS V14.01,2013-03-05 01:34:00,
2013-03-04 17:39:00,46.1,21.9,30.08,SSE,156,2.0,3.0,38,0.00,,---,0.00,18.00,VWS V14.01,2013-03-05 01:39:00,
2013-03-04 17:44:00,45.6,21.5,30.08,SSW,199,1.0,3.0,38,0.00,,---,0.00,14.00,VWS V14.01,2013-03-05 01:44:00,
2013-03-04 17:49:00,45.0,21.5,30.07,South,187,1.0,3.0,39,0.00,,---,0.00,11.00,VWS V14.01,2013-03-05 01:49:00,
2013-03-04 17:54:00,44.1,21.3,30.07,South,180,0.0,3.0,40,0.00,,---,0.00,7.00,VWS V14.01,2013-03-05 01:54:00,
2013-03-04 17:59:00,43.1,21.0,30.07,SW,219,3.0,3.0,41,0.00,,---,0.00,5.00,VWS V14.01,2013-03-05 01:59:00,
2013-03-04 18:04:00,42.5,21.0,30.07,SW,224,2.0,3.0,42,0.00,,---,0.00,0.00,VWS V14.01,2013-03-05 02:04:00,
2013-03-04 18:09:00,41.8,21.0,30.07,SW,228,2.0,4.0,43,0.00,,---,0.00,0.00,VWS V14.01,2013-03-05 02:09:00,
2013-03-04 18:14:00,41.4,20.6,30.07,SW,229,1.0,4.0,43,0.00,,---,0.00,0.00,VWS V14.01,2013-03-05 02:14:00,
2013-03-04 18:19:00,41.0,20.2,30.07,SW,221,2.0,4.0,43,0.00,,---,0.00,0.00,VWS V14.01,2013-03-05 02:19:00,
2013-03-04 18:24:00,40.7,20.5,30.07,SW,221,1.0,4.0,44,0.00,,---,0.00,0.00,VWS V14.01,2013-03-05 02:24:00,
2013-03-04 18:29:00,40.4,20.2,30.07,SW,215,1.0,4.0,44,0.00,,---,0.00,0.00,VWS V14.01,2013-03-05 02:29:00,
2013-03-04 18:34:00,40.1,20.5,30.07,SW,226,2.0,3.0,45,0.00,,---,0.00,0.00,VWS V14.01,2013-03-05 02:34:00,
2013-03-04 18:39:00,39.7,20.1,30.07,SW,215,2.0,3.0,45,0.00,,---,0.00,0.00,VWS V14.01,2013-03-05 02:39:00,
2013-03-04 18:44:00,39.4,19.8,30.07,SW,227,2.0,3.0,45,0.00,,---,0.00,0.00,VWS V14.01,2013-03-05 02:44:00,
2013-03-04 18:49:00,39.1,20.1,30.07,SW,217,2.0,3.0,46,0.00,,---,0.00,0.00,VWS V14.01,2013-03-05 02:49:00,
2013-03-04 18:54:00,38.8,19.8,30.07,SW,223,1.0,4.0,46,0.00,,---,0.00,0.00,VWS V14.01,2013-03-05 02:54:00,
2013-03-04 18:59:00,38.6,20.1,30.07,SW,226,1.0,4.0,47,0.00,,---,0.00,0.00,VWS V14.01,2013-03-05 02:59:00,
2013-03-04 19:04:00,38.4,19.9,30.07,SW,227,2.0,3.0,47,0.00,,---,0.00,0.00,VWS V14.01,2013-03-05 03:04:00,
2013-03-04 19:09:00,38.2,19.8,30.07,South,180,0.0,3.0,47,0.00,,---,0.00,0.00,VWS V14.01,2013-03-05 03:09:00,
2013-03-04 19:14:00,37.7,20.3,30.07,South,190,0.0,3.0,49,0.00,,---,0.00,0.00,VWS V14.01,2013-03-05 03:14:00,
2013-03-04 19:19:00,37.3,19.9,30.07,South,191,0.0,3.0,49,0.00,,---,0.00,0.00,VWS V14.01,2013-03-05 03:19:00,
2013-03-04 19:24:00,37.1,20.2,30.07,SSE,164,0.0,3.0,50,0.00,,---,0.00,0.00,VWS V14.01,2013-03-05 03:24:00,
2013-03-04 19:29:00,36.6,20.2,30.07,SSE,164,0.0,3.0,51,0.00,,---,0.00,0.00,VWS V14.01,2013-03-05 03:29:00,
2013-03-04 19:34:00,36.1,20.2,30.07,SSW,209,0.0,0.0,52,0.00,,---,0.00,0.00,VWS V14.01,2013-03-05 03:34:00,
2013-03-04 19:39:00,35.6,20.2,30.06,SSW,199,1.0,4.0,53,0.00,,---,0.00,0.00,VWS V14.01,2013-03-05 03:39:00,
2013-03-04 19:44:00,35.2,20.2,30.06,WSW,252,0.0,4.0,54,0.00,,---,0.00,0.00,VWS V14.01,2013-03-05 03:44:00,
2013-03-04 19:49:00,35.0,20.5,30.06,WSW,252,0.0,4.0,55,0.00,,---,0.00,0.00,VWS V14.01,2013-03-05 03:49:00,
2013-03-04 19:54:00,34.7,20.2,30.06,WSW,252,0.0,4.0,55,0.00,,---,0.00,0.00,VWS V14.01,2013-03-05 03:54:00,
2013-03-04 19:59:00,34.5,20.4,30.06,WSW,252,0.0,4.0,56,0.00,,---,0.00,0.00,VWS V14.01,2013-03-05 03:59:00,
2013-03-04 20:04:00,34.3,20.2,30.07,WSW,252,0.0,0.0,56,0.00,,---,0.00,0.00,VWS V14.01,2013-03-05 04:04:00,
2013-03-04 20:09:00,34.2,20.1,30.07,SSW,209,0.0,2.0,56,0.00,,---,0.00,0.00,VWS V14.01,2013-03-05 04:09:00,
2013-03-04 20:14:00,34.1,20.1,30.06,South,188,1.0,2.0,56,0.00,,---,0.00,0.00,VWS V14.01,2013-03-05 04:14:00,
2013-03-04 20:19:00,34.0,20.4,30.06,West,272,2.0,3.0,57,0.00,,---,0.00,0.00,VWS V14.01,2013-03-05 04:19:00,
2013-03-04 20:24:00,34.0,20.0,30.06,West,272,0.0,3.0,56,0.00,,---,0.00,0.00,VWS V14.01,2013-03-05 04:24:00,
2013-03-04 20:29:00,33.9,20.3,30.06,West,273,0.0,3.0,57,0.00,,---,0.00,0.00,VWS V14.01,2013-03-05 04:29:00,
2013-03-04 20:34:00,33.8,20.2,30.06,WNW,286,0.0,0.0,57,0.00,,---,0.00,0.00,VWS V14.01,2013-03-05 04:34:00,
2013-03-04 20:39:00,33.7,20.5,30.06,WNW,286,1.0,2.0,58,0.00,,---,0.00,0.00,VWS V14.01,2013-03-05 04:39:00,
2013-03-04 20:44:00,33.4,20.2,30.06,WNW,286,0.0,2.0,58,0.00,,---,0.00,0.00,VWS V14.01,2013-03-05 04:44:00,
2013-03-04 20:49:00,33.2,20.0,30.05,North,5,0.0,2.0,58,0.00,,---,0.00,0.00,VWS V14.01,2013-03-05 04:49:00,
2013-03-04 20:54:00,33.1,19.5,30.05,North,5,1.0,2.0,57,0.00,,---,0.00,0.00,VWS V14.01,2013-03-05 04:54:00,
2013-03-04 20:59:00,33.1,19.9,30.05,North,5,0.0,2.0,58,0.00,,---,0.00,0.00,VWS V14.01,2013-03-05 04:59:00,
2013-03-04 21:00:00,33.1,19.9,30.05,North,5,0.0,2.0,58,0.00,,---,0.00,0.00,VWS V14.01,2013-03-05 05:00:00,
2013-03-04 21:05:00,33.0,19.9,30.05,NW,313,2.0,2.0,58,0.00,,---,0.00,0.00,VWS V14.01,2013-03-05 05:05:00,
2013-03-04 21:10:00,32.9,20.2,30.05,NW,319,0.0,3.0,59,0.00,,---,0.00,0.00,VWS V14.01,2013-03-05 05:10:00,
2013-03-04 21:15:00,33.0,20.2,30.05,WNW,294,2.0,3.0,59,0.00,,---,0.00,0.00,VWS V14.01,2013-03-05 05:15:00,
2013-03-04 21:20:00,33.2,20.4,30.06,West,277,0.0,3.0,59,0.00,,---,0.00,0.00,VWS V14.01,2013-03-05 05:20:00,
2013-03-04 21:25:00,33.2,20.4,30.05,West,277,0.0,3.0,59,0.00,,---,0.00,0.00,VWS V14.01,2013-03-05 05:25:00,
2013-03-04 21:30:00,33.3,20.1,30.05,West,277,0.0,3.0,58,0.00,,---,0.00,0.00,VWS V14.01,2013-03-05 05:30:00,
2013-03-04 21:35:00,33.4,20.2,30.05,West,277,0.0,2.0,58,0.00,,---,0.00,0.00,VWS V14.01,2013-03-05 05:35:00,
2013-03-04 21:40:00,33.6,19.6,30.05,West,277,0.0,2.0,56,0.00,,---,0.00,0.00,VWS V14.01,2013-03-05 05:40:00,
2013-03-04 21:45:00,34.2,19.7,30.05,SSW,197,3.0,3.0,55,0.00,,---,0.00,0.00,VWS V14.01,2013-03-05 05:45:00,
2013-03-04 21:50:00,34.8,19.4,30.05,SW,225,3.0,3.0,53,0.00,,---,0.00,0.00,VWS V14.01,2013-03-05 05:50:00,
2013-03-04 21:55:00,35.1,19.7,30.05,SW,236,0.0,3.0,53,0.00,,---,0.00,0.00,VWS V14.01,2013-03-05 05:55:00,
2013-03-04 22:00:00,34.9,19.5,30.05,SW,236,1.0,3.0,53,0.00,,---,0.00,0.00,VWS V14.01,2013-03-05 06:00:00,
2013-03-04 22:05:00,34.5,20.0,30.05,SW,227,1.0,2.0,55,0.00,,---,0.00,0.00,VWS V14.01,2013-03-05 06:05:00,
2013-03-04 22:10:00,34.0,19.5,30.05,SW,234,1.0,3.0,55,0.00,,---,0.00,0.00,VWS V14.01,2013-03-05 06:10:00,
2013-03-04 22:15:00,33.9,19.5,30.05,SW,232,1.0,3.0,55,0.00,,---,0.00,0.00,VWS V14.01,2013-03-05 06:15:00,
2013-03-04 22:20:00,34.1,19.6,30.04,SW,236,1.0,3.0,55,0.00,,---,0.00,0.00,VWS V14.01,2013-03-05 06:20:00,
2013-03-04 22:25:00,34.3,19.8,30.04,WSW,240,1.0,3.0,55,0.00,,---,0.00,0.00,VWS V14.01,2013-03-05 06:25:00,
2013-03-04 22:30:00,34.3,19.8,30.05,WSW,248,1.0,3.0,55,0.00,,---,0.00,0.00,VWS V14.01,2013-03-05 06:30:00,
2013-03-04 22:35:00,34.2,19.3,30.05,SSW,201,1.0,2.0,54,0.00,,---,0.00,0.00,VWS V14.01,2013-03-05 06:35:00,
2013-03-04 22:40:00,34.2,19.7,30.05,SW,227,3.0,3.0,55,0.00,,---,0.00,0.00,VWS V14.01,2013-03-05 06:40:00,
2013-03-04 22:45:00,34.1,20.1,30.04,WSW,246,2.0,3.0,56,0.00,,---,0.00,0.00,VWS V14.01,2013-03-05 06:45:00,
2013-03-04 22:50:00,33.9,19.9,30.04,WSW,238,3.0,3.0,56,0.00,,---,0.00,0.00,VWS V14.01,2013-03-05 06:50:00,
2013-03-04 22:55:00,33.8,20.2,30.04,WSW,248,3.0,4.0,57,0.00,,---,0.00,0.00,VWS V14.01,2013-03-05 06:55:00,
2013-03-04 23:00:00,33.8,19.8,30.04,SW,231,2.0,4.0,56,0.00,,---,0.00,0.00,VWS V14.01,2013-03-05 07:00:00,
2013-03-04 23:05:00,33.8,19.8,30.04,SW,231,2.0,2.0,56,0.00,,---,0.00,0.00,VWS V14.01,2013-03-05 07:05:00,
2013-03-04 23:10:00,34.0,20.0,30.03,SW,236,1.0,2.0,56,0.00,,---,0.00,0.00,VWS V14.01,2013-03-05 07:10:00,
2013-03-04 23:15:00,34.1,19.6,30.03,SW,233,2.0,3.0,55,0.00,,---,0.00,0.00,VWS V14.01,2013-03-05 07:15:00,
2013-03-04 23:20:00,34.2,20.1,30.03,WSW,249,2.0,3.0,56,0.00,,---,0.00,0.00,VWS V14.01,2013-03-05 07:20:00,
2013-03-04 23:25:00,34.0,20.0,30.02,WSW,244,1.0,3.0,56,0.00,,---,0.00,0.00,VWS V14.01,2013-03-05 07:25:00,
2013-03-04 23:30:00,33.9,19.9,30.02,WSW,243,0.0,3.0,56,0.00,,---,0.00,0.00,VWS V14.01,2013-03-05 07:30:00,
2013-03-04 23:35:00,33.7,20.5,30.02,WSW,243,0.0,3.0,58,0.00,,---,0.00,0.00,VWS V14.01,2013-03-05 07:35:00,
2013-03-04 23:40:00,33.2,20.4,30.01,WSW,243,1.0,3.0,59,0.00,,---,0.00,0.00,VWS V14.01,2013-03-05 07:40:00,
2013-03-04 23:45:00,32.5,20.2,30.01,WSW,243,1.0,3.0,60,0.00,,---,0.00,0.00,VWS V14.01,2013-03-05 07:45:00,
2013-03-04 23:50:00,32.1,20.6,30.01,WSW,243,0.0,3.0,62,0.00,,---,0.00,0.00,VWS V14.01,2013-03-05 07:50:00,
2013-03-04 23:55:00,31.7,20.6,30.01,WSW,243,0.0,3.0,63,0.00,,---,0.00,0.00,VWS V14.01,2013-03-05 07:55:00,